Regional Weather Roundup
Issued by NWS

Home | Current Version | Previous Version | Graphics & Text | Print | Product List | Glossary On
Versions: 1 2 3 4 5 6 7 8 9 10 11 12 13 14 15 16 17 18 19 20 21 22 23 24 25 26 27 28 29 30 31 32 33 34 35 36 37 38 39 40 41 42 43 44 45 46 47 48 49 50
000
ASUS43 KLMK 211310
RWRKY
KENTUCKY REGIONAL WEATHER ROUNDUP
NATIONAL WEATHER SERVICE LOUISVILLE KY
800 AM EST TUE NOV 21 2017

NOTE "FAIR" INDICATES FEW OR NO CLOUDS BELOW 12,000 FEET
WITH NO SIGNIFICANT WEATHER AND/OR OBSTRUCTIONS TO VISIBILITY.

KYZ001>023-026-027-061>063-070>075-211400-
WESTERN AND SOUTH CENTRAL KENTUCKY

CITY           SKY/WX    TMP DP  RH WIND       PRES   REMARKS
PADUCAH        CLEAR     39  28  64 S6        29.99R WCI  35
HENDERSON      CLEAR     38  30  73 S9        29.98S WCI  31
OWENSBORO      PTCLDY    38  29  70 S12       30.00R WCI  30
HOPKINSVILLE   PTCLDY    38  26  61 S6        30.03S WCI  33
BOWLING GREEN  MOCLDY    38  31  76 S6        30.06S WCI  33
GLASGOW        CLOUDY    36  30  78 CALM      30.06S
$$

KYZ024-025-028>034-038-045-046-053-211400-
NORTH CENTRAL KENTUCKY

CITY           SKY/WX    TMP DP  RH WIND       PRES   REMARKS
LOUISVILLE/SDF CLOUDY    44  27  51 S10       30.00S
LOUISVILLE/LOU CLOUDY    41  29  62 S8        30.00F
FORT KNOX      CLOUDY    40  27  60 S10       29.99S WCI  34
$$

KYZ035>037-039>044-047>052-055>060-089>105-211400-
NORTHEAST KENTUCKY

CITY           SKY/WX    TMP DP  RH WIND       PRES   REMARKS
LEXINGTON      CLOUDY    40  30  67 S9        30.03S WCI  34
COVINGTON      CLOUDY    41  27  57 S13       29.95S
FRANKFORT      CLOUDY    42  29  59 SW13      30.01S
$$

KYZ054-064>069-076>088-106>120-211400-
SOUTHEAST KENTUCKY

CITY           SKY/WX    TMP DP  RH WIND       PRES   REMARKS
JACKSON        CLEAR     39  24  55 SW3       30.05S
LONDON         CLEAR     30  25  81 CALM      30.07S
SOMERSET       CLOUDY    39  30  70 CALM      30.08S
MIDDLESBORO    CLEAR     35  28  78 CALM      30.12R
MONTICELLO     NOT AVBL
$$




USA.gov is the U.S. government's official web portal to all federal, state and local government web resources and services.